Weather in Mao

Dominican Republic     19°33′31″N   71°04′10″W
temp.,
°C
wind,
m/s
gust,
m/s
humid.,
%
clouds,
%
prec.,
mm/h
press.,
hPa
HPBL,
m
14 may, fri
fri1423:00+23ese48756 0.0 1016270
02:00+21ese368459 0.0 1015157
05:00+20ese478926 0.0 1016208
08:00+24ese47660 0.0 1017443
11:00+33ese66345 0.0 10151611
14:00+36e55230 0.0 10122447
17:00+35ne65310 0.0 10102329
20:00+23nne127926 0.4 101435
15 may, sat
sat1523:00+23ese37810 0.2 1016248
02:00+21ese23921 0.2 101587
05:00+20ese34944 0.0 1015104
08:00+24ese46670 0.0 1016375
11:00+33e45350 0.0 10151931
14:00+37ene54244 0.0 10113108
17:00+30nne4452100 0.1 1012614
20:00+23s1191100 6.3 101459
16 may, sun
sun1623:00+22e119170 4.3 101630
02:00+22e239273 6.3 1014139
05:00+21ese24945 0.0 1014112
08:00+23ese34833 0.0 1016337
11:00+30ese35475 0.0 10161412
14:00+35ne443049 0.0 10122715
17:00+25ssw4574100 1.6 1014305
20:00+22e119394 9.1 101635
17 may, mon
mon1723:00+22ne009179 1.4 101715
02:00+22e119385 1.4 101513
05:00+21ese239599 0.0 101575
08:00+23ese358681 0.0 1016345
11:00+30ese33519 0.0 10161257
14:00+33sw333795 0.6 10132333
17:00+23sse2488100 2.9 1014123
20:00+22ese2291100 5.6 101668
18 may, tue
tue1823:00+22ese2289100 0.3 101733
02:00+22ese1289100 0.3 101559
05:00+21ese2390100 0.0 101599
08:00+23ese458274 0.0 1017317
11:00+30ese454436 0.0 10161514
14:00+34e232893 0.0 10132795
17:00+30nnw4549100 0.0 1012449
20:00+24sw1282100 3.9 101532